Location: Misciano
(43.5000°N, 11.9500°E)
Time: 03:42:37
(UTC+00:00)

Cosmos 2219 Rocket - Pass Details

Date: 13 August 2020
Orbit: 826 x 848 km, 71.0° (Epoch: 25 September)

Event Time Altitude Azimuth Distance (km) Brightness Sun altitude
Rises 20:25:56 0° 346° (NNW) 3,415 6.4 -20.2°
Reaches altitude 10° 20:29:34 10° 9° (N) 2,479 5.1 -20.7°
Maximum altitude 20:32:45 15° 44° (NE) 2,141 4.3 -21.1°
Enters shadow 20:35:15 12° 72° (ENE) 2,355 4.3 -21.4°
